Terug naar catalogus

O3BF04

ActiefCommunicatieMEO
NORAD 56367·PAYLOAD·🇱🇺 Luxembourg

Gelanceerd Apr 28, 2023 vanaf Cape Canaveral Space Force Station

Loading…

Volgende Passages (komende 24 uur)

TLE

VersSource: CelesTrak SupGP

Epoch: Sep 13, 2026, 13:59 UTC

1 56367C 23059A   26256.58333333  .00000000  00000+0  00000+0 0  2562
2 56367   0.0602 343.3834 0007709 186.2940 293.5163  5.00115094    13

Volg O3BF04 in realtime met AllMySat

Download on the App Store